Location: Ajisawe
(8.4333°N, 4.3833°E)
Time: 19:54:38
(UTC+00:00)

Vanguard 1 - Visible Passes

Search period start: 17 April 2021 00:00
Search period end: 27 April 2021 00:00
Orbit: 648 x 3834 km, 34.3° (Epoch: 17 April)

Date Brightness Start Highest point End Pass type
(mag) Time Alt. Az. Time Alt. Az. Time Alt. Az.
17 Apr 13.4 18:09:08 10° NW 18:30:13 38° NNE 18:47:43 11° E visible
17 Apr 12.2 20:37:10 10° NW 20:59:54 70° NNE 21:00:25 70° NE visible
17 Apr 13.5 23:07:04 10° WNW 23:13:07 22° WNW 23:13:07 22° WNW visible
18 Apr 13.2 18:31:04 10° NW 18:53:04 44° NNE 19:07:27 18° E visible
18 Apr 12.2 20:58:52 10° NW 21:20:10 80° NNW 21:20:10 80° NNW visible
18 Apr 13.8 23:30:12 10° WNW 23:32:52 15° W 23:32:52 15° W visible
19 Apr 12.9 18:52:47 10° NW 19:15:38 51° NNE 19:27:13 27° E visible
19 Apr 12.4 21:20:44 10° WNW 21:39:56 68° W 21:39:56 68° W visible
20 Apr 12.6 19:14:23 10° NW 19:37:53 61° NNE 19:47:01 37° E visible
20 Apr 12.6 21:42:52 10° WNW 21:59:45 53° W 21:59:45 53° W visible
21 Apr 12.4 19:35:56 10° NW 19:59:51 73° NE 20:06:52 49° ESE visible
21 Apr 13.0 22:05:25 10° WNW 22:19:35 40° W 22:19:35 40° W visible
22 Apr 13.4 17:31:06 10° NW 17:52:26 45° NNE 18:12:12 10° E visible
22 Apr 12.2 19:57:33 10° NW 20:21:32 87° NE 20:26:44 60° ESE visible
22 Apr 13.3 22:28:35 10° WNW 22:39:28 28° WSW 22:39:28 28° WSW visible
23 Apr 13.2 17:52:36 10° NW 18:14:56 53° NNE 18:33:56 12° E visible
23 Apr 12.3 20:19:20 10° WNW 20:42:58 77° SW 20:46:38 65° SSE visible
23 Apr 13.6 22:52:37 10° W 22:59:22 19° WSW 22:59:22 19° WSW visible
24 Apr 13.0 18:14:00 10° NW 18:37:09 63° NNE 18:53:51 18° ESE visible
24 Apr 12.4 20:41:24 10° WNW 21:04:12 62° SW 21:06:35 60° SSW visible
24 Apr 13.9 23:18:03 10° W 23:19:19 11° WSW 23:19:19 11° WSW visible
25 Apr 12.9 18:35:24 10° NW 18:59:06 75° NE 19:13:49 25° ESE visible
25 Apr 12.7 21:03:53 10° WNW 21:25:19 49° SW 21:26:32 48° SW visible
26 Apr 12.8 18:56:53 10° NW 19:20:50 89° NE 19:33:48 30° SE visible
26 Apr 13.0 21:26:58 10° WNW 21:46:23 37° SW 21:46:32 37° SW visible
